Location: Ashtead
(51.3000°N, 0.3000°W)
Time: 17:36:11
(UTC+00:00)

CZ-2C R/B - Pass Details

Date: 07 May 2025
Orbit: 781 x 868 km, 98.4° (Epoch: 12 May)

Event Time Altitude Azimuth Distance (km) Brightness Sun altitude
Exits shadow 01:10:42 38° 177° (S) 1,218 3.0 -20.0°
Maximum altitude 01:12:47 77° 255° (WSW) 828 2.5 -19.9°
Drops below altitude 10° 01:18:01 10° 343° (NNW) 2,367 5.8 -19.6°
Sets 01:20:21 0° 345° (NNW) 3,293 6.7 -19.5°
